Regional Weather Roundup
Issued by NWS

Home | Current Version | Previous Version | Graphics & Text | Print | Product List | Glossary On
Versions: 1 2 3 4 5 6 7 8 9 10 11 12 13 14 15 16 17 18 19 20 21 22 23 24 25 26 27 28
000
ASUS45 KBOU 241410
RWRCO

WEATHER ROUNDUP FOR COLORADO
NATIONAL WEATHER SERVICE DENVER/BOULDER CO
800 AM MDT THU MAY 24 2018

NOTE: "FAIR" INDICATES FEW OR NO CLOUDS BELOW 12000 FEET WITH NO
SIGNIFICANT WEATHER AND/OR OBSTRUCTIONS TO VISIBILITY.

COZ001>005-013-030-031-241500-
...NORTHWEST COLORADO...

CITY           SKY/WX    TMP DP  RH WIND       PRES   REMARKS
CRAIG          FAIR      48  40  73 CALM      30.23R
HAYDEN         FAIR      50  36  58 E10       30.25S
MEEKER         FAIR      50  35  56 NE7       30.24S
RANGELY        FAIR      52  38  57 CALM      30.18S
RABBIT EARS PA FAIR      43  30  61 SW3       30.42R
STEAMBOAT SPGS FAIR      44  37  78 CALM      30.26S
WALDEN         FAIR      45  32  61 S6        30.31S
$$

COZ006>008-011-241500-
...WEST CENTRAL VALLEYS...

CITY           SKY/WX    TMP DP  RH WIND       PRES   REMARKS
GRAND JUNCTION FAIR      59  34  39 SE12      30.16R
MONTROSE       FAIR      56  26  31 E6        30.22R
EAGLE          FAIR      47  28  47 CALM      30.30S
RIFLE          FAIR      52  33  48 E3        30.22R
DELTA          FAIR      58  27  29 E6        30.20R
NUCLA          FAIR      54  25  32 CALM      30.25S
$$

COZ017>023-064>068-241500-
...SOUTHWEST COLORADO...

CITY           SKY/WX    TMP DP  RH WIND       PRES   REMARKS
DURANGO        FAIR      52  26  36 CALM      30.26R
CORTEZ         FAIR      55  28  35 MISG      30.22R
PAGOSA SPRINGS FAIR      54  22  28 CALM      30.33R
TELLURIDE      FAIR      49  23  37 CALM      30.40R
WOLF CREEK PAS FAIR      41  16  36 S3        30.57R
$$

COZ009-010-012-014-032>034-037-058>063-241500-
...CENTRAL COLORADO...

CITY           SKY/WX    TMP DP  RH WIND       PRES   REMARKS
ASPEN          FAIR      50  27  40 CALM      30.29R
BUENA VISTA    FAIR      49  22  34 CALM      30.33R
COPPER MTN     FAIR      45  19  36 S7        30.51R
BERTHOUD PASS  FAIR      36  27  69 W14G21    30.53R
COTTONWOOD PAS FAIR      55  19  24 SE6       30.41R
GUNNISON       FAIR      42  23  46 CALM      30.36R
GRANBY         FAIR      42  32  69 CALM      30.35R
KREMMLING      FAIR      45  34  65 CALM      30.33R
LEADVILLE      FAIR      42  22  44 CALM      30.40R
MONARCH PASS   FAIR      39  16  38 MISG      30.62R
SALIDA         FAIR      51  26  37 N7        30.38R
SUNLIGHT       FAIR      43  21  42 SW6       30.48R
WILKERSON PASS FAIR      45  14  29 CALM      30.51R
$$

COZ069>075-241500-
...SAN LUIS VALLEY/SANGRE DE CRISTO MOUNTAINS...

CITY           SKY/WX    TMP DP  RH WIND       PRES   REMARKS
ALAMOSA        FAIR      50  33  52 CALM      30.30R
DEL NORTE      FAIR      53  21  29 NW5       30.33R
LA VETA PASS   FAIR      46  36  66 SW14G25   30.53S
SAGUACHE       NOT AVBL
$$

COZ035-036-038>040-241500-
...NORTHERN COLORADO FRONT RANGE...

CITY           SKY/WX    TMP DP  RH WIND       PRES   REMARKS
DENVER INTL AP FAIR      63  44  50 W9        30.15R
AURORA         MOSUNNY   62  41  45 SW8       30.17R
FRONT RANGE AP NOT AVBL
ERIE MUNI ARPT FAIR      61  46  58 CALM      30.19S
BOULDER MUN AP FAIR      63  45  51 CALM      30.14S
CENTENNIAL     PTSUNNY   62  39  42 W8        30.17S
BROOMFIELD     MOSUNNY   63  46  55 VRB5      30.17R
FORT COLLINS   FAIR      62  47  57 SW3       30.13S
LONGMONT       FAIR      65  50  58 CALM      30.15S
$$

COZ041-046-047-076>085-087-088-241500-
...PIKES PEAK/PALMER DIVIDE AND SOUTHERN FOOTHILLS...

CITY           SKY/WX    TMP DP  RH WIND       PRES   REMARKS
COLO. SPRINGS  FAIR      67  43  41 NW13      30.18R
A. F. ACADEMY  FAIR      63  42  46 N9        30.19S
SCHRIEVER AFB  NOT AVBL
CHEYENNE MTN   FAIR      65  28  24 N8        30.17R
ELLICOTT       NOT AVBL
FALCON         NOT AVBL
FORT CARSON    FAIR      66  36  32 N10       30.14S
LIMON          FAIR      63  49  60 NW16      30.12R
MONUMENT HILL  FAIR      59  39  47 NW8       30.25S
CANON CITY     FAIR      68  30  24 W17G25    30.13S
WALSENBURG     FAIR      72  30  21 CALM      30.17S
TRINIDAD       FAIR      64  47  53 W23       30.15R
$$

COZ042>045-048>051-090-091-241500-
...NORTHEAST COLORADO...

CITY           SKY/WX    TMP DP  RH WIND       PRES   REMARKS
GREELEY ARPT   FAIR      61  47  59 W6        30.13R
AKRON            N/A     60  54  80 W12       30.07S
BURLINGTON     FAIR      66  56  70 SW17      30.05R
WRAY           FAIR      68  57  68 NW14      30.00R
YUMA           FAIR      61  55  82 NW12      30.04R
STERLING       FAIR      63  55  77 CALM      30.06R
HOLYOKE        FAIR      64  59  82 NW13      30.01S
FORT MORGAN    FAIR      64  52  64 W8        30.10R
$$

COZ086-089-092>099-241500-
...SOUTHEAST COLORADO...

CITY           SKY/WX    TMP DP  RH WIND       PRES   REMARKS
PUEBLO         FAIR      65  40  39 W10       30.09R
LA JUNTA       FAIR      70  54  56 W9        30.06S
LAMAR          FAIR      72  50  45 MISG      30.04R
SPRINGFIELD      N/A     65  50  58 SW17G33   30.11R
$$




USA.gov is the U.S. government's official web portal to all federal, state and local government web resources and services.